Find Kosmos-272

NORAD ID: 3818 Int'l Des: 1969-024 Owner: OKB10 Country: SU operational
LEOCIRCULAR

リアルタイム位置

3D地球を読み込み中...

Kosmos-272について

説明を読み込み中...

次回通過

Passes for default location (London). Set your location on the main map for personalized predictions.

高度履歴

Loading altitude history...

軌道要素

1 03818U 69024A 26107.10163287 -.00000110 00000-0 -23291-3 0 9999
2 03818 73.9935 348.4332 0019410 197.3306 313.9986 13.17947819745802
Epoch: Apr 17, 2026 • Age: 13 hours

現在のステータス

高度 1210.2 km
速度 7.25 km/s
衛星直下点 -68.16°S, 131.53°E
タイプ other

Most Searched